Location: Unspecified
(43.8688°N, 3.6914°E)
Time: 19:23:31
(UTC+01:00)

ISS - Visible Passes

Search period start: 24 November 2017 00:00
Search period end: 04 December 2017 00:00
Orbit: 401 x 407 km, 51.6° (Epoch: 25 November)

Date Brightness Start Highest point End Pass type
(mag) Time Alt. Az. Time Alt. Az. Time Alt. Az.
25 Nov -1.0 19:14:40 10° S 19:14:53 11° S 19:14:53 11° S visible
26 Nov -1.4 18:24:30 10° SE 18:24:56 10° SE 18:25:02 10° SE visible
26 Nov -0.5 19:57:36 10° SW 19:57:43 11° SW 19:57:43 11° SW visible
27 Nov -2.7 19:05:27 10° SSW 19:07:46 34° S 19:07:46 34° S visible
28 Nov -2.3 18:13:40 10° S 18:16:19 23° SE 18:17:44 17° E visible
28 Nov -1.0 19:49:22 10° WSW 19:50:24 18° W 19:50:24 18° W visible
29 Nov -4.0 18:56:52 10° WSW 19:00:09 87° NNW 19:00:16 82° NE visible
30 Nov -3.4 18:04:35 10° SW 18:07:47 51° SE 18:10:04 17° ENE visible
30 Nov -1.2 19:41:23 10° W 19:42:43 20° WNW 19:42:43 20° WNW visible
01 Dec -3.1 18:48:39 10° W 18:51:49 45° NNW 18:52:28 39° N visible
02 Dec -3.7 17:56:02 10° WSW 17:59:19 73° NNW 18:02:09 13° NE visible
02 Dec -1.3 19:33:28 10° WNW 19:34:47 18° NW 19:34:47 18° NW visible
03 Dec -2.4 18:40:38 10° W 18:43:32 29° NNW 18:44:26 25° NNE visible
